EJU75FP LPPT-LPMA

Flight info

Callsign EJU75FP
Flight time 1h 25m
Altitude 37000
Route ULVOT DCT GALPA DCT RAKUN
Aircraft A320/M-SDE3FGHIRWY/LB1

Departure

Time 2026-05-07 20:33
Airport Lisbon Humberto Delgado Airport (LPPT)

Arrival

Time 2026-05-07 21:59
Airport Cristiano Ronaldo International Airport (LPMA)
Time Latitude Longitude Altitude Speed Heading
2026-05-07 19:57 38.77028 -9.13089 334 ft 0 kts 78°
2026-05-07 20:24 38.77027 -9.13091 337 ft 2 kts 78°
2026-05-07 20:24 38.77022 -9.13123 335 ft 4 kts 78°
2026-05-07 20:25 38.77019 -9.13155 334 ft 4 kts 108°
2026-05-07 20:25 38.77033 -9.13179 333 ft 4 kts 162°
2026-05-07 20:25 38.77038 -9.13182 334 ft 0 kts 168°
2026-05-07 20:27 38.77033 -9.13180 334 ft 5 kts 168°
2026-05-07 20:28 38.76945 -9.13157 337 ft 14 kts 168°
2026-05-07 20:28 38.76857 -9.13133 339 ft 12 kts 168°
2026-05-07 20:28 38.76788 -9.13149 335 ft 9 kts 235°
2026-05-07 20:28 38.76769 -9.13234 337 ft 13 kts 259°
2026-05-07 20:29 38.76744 -9.13371 353 ft 16 kts 248°
2026-05-07 20:29 38.76661 -9.13463 350 ft 16 kts 234°
2026-05-07 20:29 38.76634 -9.13601 345 ft 17 kts 260°
2026-05-07 20:29 38.76614 -9.13750 349 ft 17 kts 258°
2026-05-07 20:30 38.76585 -9.13906 355 ft 19 kts 259°
2026-05-07 20:30 38.76530 -9.14054 357 ft 19 kts 227°
2026-05-07 20:30 38.76505 -9.14207 350 ft 16 kts 292°
2026-05-07 20:30 38.76531 -9.14284 334 ft 8 kts 292°
2026-05-07 20:31 38.76537 -9.14303 334 ft 0 kts 293°
2026-05-07 20:32 38.76540 -9.14312 335 ft 6 kts 293°
2026-05-07 20:32 38.76612 -9.14400 335 ft 18 kts 12°
2026-05-07 20:33 38.76840 -9.14285 352 ft 67 kts 21°
2026-05-07 20:33 38.77461 -9.13957 364 ft 124 kts 21°
2026-05-07 20:33 38.78407 -9.13465 392 ft 166 kts 20°
2026-05-07 20:33 38.79454 -9.12868 1017 ft 165 kts 18°
2026-05-07 20:34 38.80511 -9.12296 1671 ft 167 kts 18°
2026-05-07 20:34 38.81638 -9.11660 1962 ft 189 kts 26°
2026-05-07 20:34 38.82848 -9.10740 2261 ft 215 kts 29°
2026-05-07 20:34 38.84209 -9.09692 2669 ft 240 kts 28°
2026-05-07 20:35 38.85698 -9.08540 3214 ft 256 kts 29°
2026-05-07 20:35 38.87237 -9.07329 4046 ft 264 kts 33°
2026-05-07 20:35 38.88465 -9.05531 4789 ft 276 kts 66°
2026-05-07 20:35 38.88714 -9.03102 5582 ft 278 kts 102°
2026-05-07 20:36 38.88082 -9.00778 6475 ft 275 kts 121°
2026-05-07 20:36 38.87054 -8.98727 7338 ft 272 kts 139°
2026-05-07 20:36 38.85484 -8.97442 8189 ft 267 kts 162°
2026-05-07 20:36 38.83705 -8.96915 9058 ft 266 kts 177°
2026-05-07 20:37 38.81864 -8.97127 9906 ft 269 kts 195°
2026-05-07 20:37 38.80083 -8.97988 10413 ft 284 kts 201°
2026-05-07 20:37 38.78176 -8.98990 10619 ft 308 kts 201°
2026-05-07 20:37 38.76124 -9.00082 10772 ft 331 kts 201°
2026-05-07 20:38 38.73954 -9.01329 10910 ft 353 kts 209°
2026-05-07 20:38 38.71853 -9.03121 11145 ft 370 kts 213°
2026-05-07 20:38 38.69719 -9.05016 11689 ft 375 kts 213°
2026-05-07 20:38 38.67570 -9.06940 12307 ft 379 kts 213°
2026-05-07 20:39 38.65397 -9.08888 12899 ft 382 kts 213°
2026-05-07 20:39 38.63210 -9.10850 13539 ft 385 kts 213°
2026-05-07 20:39 38.61005 -9.12823 14094 ft 388 kts 213°
2026-05-07 20:39 38.58784 -9.14798 14634 ft 390 kts 213°
2026-05-07 20:40 38.56545 -9.16783 15176 ft 392 kts 213°
2026-05-07 20:40 38.54300 -9.18772 15699 ft 394 kts 213°
2026-05-07 20:40 38.52037 -9.20775 16227 ft 396 kts 214°
2026-05-07 20:40 38.49772 -9.22781 16765 ft 397 kts 214°
2026-05-07 20:41 38.47492 -9.24801 17275 ft 399 kts 214°
2026-05-07 20:41 38.45202 -9.26829 17768 ft 402 kts 214°
2026-05-07 20:41 38.42898 -9.28866 18252 ft 404 kts 215°
2026-05-07 20:41 38.40577 -9.30914 18650 ft 406 kts 214°
2026-05-07 20:42 38.38269 -9.32947 19043 ft 409 kts 214°
2026-05-07 20:42 38.35922 -9.35015 19414 ft 411 kts 214°
2026-05-07 20:42 38.33563 -9.37092 19784 ft 414 kts 214°
2026-05-07 20:42 38.31189 -9.39180 20145 ft 416 kts 214°
2026-05-07 20:43 38.28801 -9.41280 20496 ft 418 kts 214°
2026-05-07 20:43 38.26401 -9.43394 20853 ft 420 kts 214°
2026-05-07 20:43 38.23995 -9.45510 21241 ft 421 kts 214°
2026-05-07 20:43 38.21578 -9.47629 21623 ft 423 kts 214°
2026-05-07 20:44 38.19152 -9.49751 21983 ft 424 kts 214°
2026-05-07 20:44 38.16716 -9.51881 22280 ft 427 kts 214°
2026-05-07 20:44 38.14249 -9.54039 22426 ft 432 kts 214°
2026-05-07 20:44 38.11778 -9.56201 22879 ft 431 kts 214°
2026-05-07 20:45 38.09307 -9.58360 23216 ft 432 kts 214°
2026-05-07 20:45 38.06826 -9.60524 23518 ft 434 kts 214°
2026-05-07 20:45 38.04334 -9.62696 23785 ft 435 kts 214°
2026-05-07 20:45 38.01869 -9.64844 24040 ft 437 kts 214°
2026-05-07 20:46 37.99367 -9.67021 24413 ft 435 kts 214°
2026-05-07 20:46 37.96880 -9.69183 24810 ft 433 kts 214°
2026-05-07 20:46 37.94400 -9.71338 25201 ft 431 kts 214°
2026-05-07 20:46 37.91933 -9.73481 25590 ft 430 kts 214°
2026-05-07 20:47 37.89470 -9.75621 25982 ft 428 kts 214°
2026-05-07 20:47 37.87022 -9.77745 26390 ft 426 kts 214°
2026-05-07 20:47 37.84576 -9.79864 26795 ft 425 kts 214°
2026-05-07 20:47 37.82143 -9.81972 27196 ft 423 kts 214°
2026-05-07 20:48 37.79721 -9.84070 27652 ft 421 kts 214°
2026-05-07 20:48 37.77308 -9.86160 28088 ft 419 kts 214°
2026-05-07 20:48 37.74912 -9.88232 28552 ft 416 kts 214°
2026-05-07 20:48 37.72524 -9.90293 28984 ft 414 kts 214°
2026-05-07 20:49 37.70148 -9.92342 29411 ft 413 kts 214°
2026-05-07 20:49 37.67774 -9.94387 29826 ft 412 kts 214°
2026-05-07 20:49 37.65414 -9.96420 30210 ft 411 kts 214°
2026-05-07 20:49 37.63109 -9.98539 30582 ft 409 kts 219°
2026-05-07 20:50 37.61105 -10.01071 30967 ft 408 kts 228°
2026-05-07 20:50 37.59335 -10.03861 31360 ft 406 kts 229°
2026-05-07 20:50 37.57581 -10.06636 31765 ft 403 kts 229°
2026-05-07 20:50 37.55834 -10.09392 32178 ft 400 kts 229°
2026-05-07 20:51 37.54120 -10.12086 32591 ft 397 kts 229°
2026-05-07 20:51 37.52395 -10.14793 33000 ft 395 kts 228°
2026-05-07 20:51 37.50682 -10.17480 33400 ft 392 kts 228°
2026-05-07 20:51 37.48981 -10.20146 33825 ft 389 kts 228°
2026-05-07 20:52 37.47292 -10.22791 34248 ft 386 kts 227°
2026-05-07 20:52 37.45613 -10.25417 34570 ft 384 kts 227°
2026-05-07 20:52 37.43939 -10.28033 34848 ft 383 kts 227°
2026-05-07 20:52 37.42264 -10.30649 35104 ft 383 kts 227°
2026-05-07 20:53 37.40594 -10.33256 35361 ft 383 kts 227°
2026-05-07 20:53 37.38924 -10.35864 35591 ft 383 kts 227°
2026-05-07 20:53 37.37253 -10.38465 35825 ft 382 kts 227°
2026-05-07 20:53 37.35582 -10.41066 36047 ft 382 kts 228°
2026-05-07 20:54 37.33913 -10.43668 36264 ft 382 kts 228°
2026-05-07 20:54 37.32245 -10.46268 36478 ft 382 kts 228°
2026-05-07 20:54 37.30576 -10.48866 36702 ft 382 kts 228°
2026-05-07 20:54 37.28908 -10.51460 36893 ft 382 kts 228°
2026-05-07 20:55 37.27237 -10.54057 36968 ft 384 kts 228°
2026-05-07 20:55 37.23837 -10.59326 36962 ft 391 kts 228°
2026-05-07 20:56 37.20404 -10.64645 36973 ft 393 kts 228°
2026-05-07 20:56 37.16982 -10.69936 36966 ft 395 kts 228°
2026-05-07 20:57 37.13474 -10.75341 36970 ft 403 kts 228°
2026-05-07 20:57 37.09962 -10.80752 36972 ft 406 kts 228°
2026-05-07 20:58 37.06398 -10.86249 36972 ft 406 kts 228°
2026-05-07 20:58 37.02826 -10.91734 36973 ft 406 kts 228°
2026-05-07 20:59 36.99252 -10.97218 36992 ft 407 kts 228°
2026-05-07 20:59 36.96272 -11.01783 36970 ft 408 kts 228°
2026-05-07 21:00 36.92668 -11.07288 36964 ft 409 kts 228°
2026-05-07 21:00 36.89063 -11.12790 36965 ft 409 kts 228°
2026-05-07 21:01 36.85450 -11.18288 36974 ft 410 kts 228°
2026-05-07 21:01 36.81829 -11.23797 36973 ft 410 kts 228°
2026-05-07 21:02 36.78207 -11.29296 36972 ft 410 kts 228°
2026-05-07 21:02 36.74576 -11.34812 36970 ft 413 kts 228°
2026-05-07 21:03 36.70920 -11.40349 36975 ft 414 kts 228°
2026-05-07 21:03 36.67250 -11.45881 36971 ft 414 kts 228°
2026-05-07 21:04 36.63579 -11.51409 36973 ft 414 kts 228°
2026-05-07 21:04 36.59907 -11.56945 36973 ft 415 kts 228°
2026-05-07 21:05 36.56232 -11.62482 36975 ft 415 kts 228°
2026-05-07 21:05 36.52556 -11.68013 36976 ft 415 kts 228°
2026-05-07 21:06 36.48873 -11.73528 36981 ft 415 kts 228°
2026-05-07 21:06 36.45180 -11.79044 36982 ft 415 kts 228°
2026-05-07 21:07 36.41481 -11.84555 36980 ft 415 kts 228°
2026-05-07 21:07 36.37791 -11.90064 36975 ft 414 kts 228°
2026-05-07 21:08 36.34134 -11.95503 36971 ft 413 kts 228°
2026-05-07 21:08 36.30456 -12.00976 36972 ft 413 kts 228°
2026-05-07 21:09 36.26776 -12.06448 36979 ft 415 kts 228°
2026-05-07 21:09 36.23059 -12.11948 36976 ft 416 kts 228°
2026-05-07 21:10 36.19339 -12.17449 36982 ft 417 kts 228°
2026-05-07 21:10 36.15611 -12.22952 36988 ft 417 kts 228°
2026-05-07 21:11 36.11880 -12.28460 36992 ft 418 kts 228°
2026-05-07 21:11 36.06298 -12.36670 36994 ft 417 kts 229°
2026-05-07 21:12 36.02558 -12.42159 37009 ft 417 kts 229°
2026-05-07 21:12 35.97154 -12.50081 36993 ft 417 kts 229°
2026-05-07 21:13 35.88451 -12.62805 36985 ft 418 kts 229°
2026-05-07 21:13 35.82741 -12.71123 36985 ft 418 kts 229°
2026-05-07 21:14 35.78984 -12.76581 36978 ft 417 kts 229°
2026-05-07 21:14 35.75222 -12.82043 36980 ft 418 kts 229°
2026-05-07 21:15 35.71454 -12.87506 36970 ft 419 kts 229°
2026-05-07 21:15 35.67691 -12.92947 36969 ft 420 kts 229°
2026-05-07 21:16 35.63900 -12.98420 36971 ft 421 kts 229°
2026-05-07 21:16 35.60103 -13.03900 36975 ft 421 kts 229°
2026-05-07 21:17 35.56301 -13.09371 36975 ft 421 kts 229°
2026-05-07 21:17 35.52492 -13.14838 36982 ft 421 kts 230°
2026-05-07 21:18 35.48678 -13.20309 36969 ft 422 kts 230°
2026-05-07 21:18 35.44849 -13.25798 36968 ft 423 kts 230°
2026-05-07 21:19 35.41020 -13.31286 36968 ft 424 kts 230°
2026-05-07 21:19 35.37212 -13.36732 36973 ft 424 kts 230°
2026-05-07 21:20 35.33372 -13.42219 36969 ft 424 kts 230°
2026-05-07 21:20 35.29525 -13.47689 36969 ft 423 kts 230°
2026-05-07 21:21 35.25671 -13.53156 36971 ft 425 kts 230°
2026-05-07 21:21 35.21807 -13.58640 36971 ft 426 kts 230°
2026-05-07 21:22 35.17940 -13.64132 36970 ft 426 kts 230°
2026-05-07 21:22 35.14062 -13.69618 36969 ft 426 kts 230°
2026-05-07 21:23 35.10172 -13.75102 36973 ft 426 kts 230°
2026-05-07 21:23 35.06312 -13.80546 36974 ft 427 kts 230°
2026-05-07 21:24 35.02426 -13.86027 36995 ft 427 kts 231°
2026-05-07 21:24 34.98529 -13.91500 36978 ft 428 kts 231°
2026-05-07 21:25 34.94619 -13.96986 36965 ft 429 kts 231°
2026-05-07 21:25 34.90704 -14.02473 36956 ft 429 kts 231°
2026-05-07 21:26 34.86790 -14.07946 36971 ft 428 kts 231°
2026-05-07 21:26 34.82870 -14.13423 36979 ft 428 kts 231°
2026-05-07 21:27 34.78951 -14.18887 36982 ft 428 kts 231°
2026-05-07 21:27 34.75059 -14.24315 36984 ft 429 kts 231°
2026-05-07 21:28 34.71132 -14.29786 36968 ft 430 kts 231°
2026-05-07 21:28 34.67179 -14.35277 36974 ft 432 kts 231°
2026-05-07 21:29 34.63212 -14.40763 36949 ft 431 kts 231°
2026-05-07 21:29 34.59261 -14.46229 36972 ft 431 kts 231°
2026-05-07 21:30 34.55304 -14.51696 36972 ft 430 kts 231°
2026-05-07 21:30 34.51350 -14.57158 36974 ft 431 kts 231°
2026-05-07 21:31 34.47395 -14.62618 36964 ft 432 kts 232°
2026-05-07 21:31 34.43441 -14.68054 36970 ft 433 kts 232°
2026-05-07 21:32 34.39449 -14.73516 36974 ft 434 kts 231°
2026-05-07 21:32 34.35325 -14.78858 36975 ft 435 kts 230°
2026-05-07 21:33 34.31107 -14.84092 36976 ft 434 kts 229°
2026-05-07 21:33 34.26907 -14.89329 36975 ft 433 kts 230°
2026-05-07 21:34 34.22742 -14.94591 36963 ft 433 kts 231°
2026-05-07 21:34 34.18583 -14.99849 36975 ft 433 kts 230°
2026-05-07 21:35 34.14411 -15.05097 36980 ft 433 kts 230°
2026-05-07 21:35 34.10233 -15.10348 36984 ft 434 kts 230°
2026-05-07 21:36 34.06048 -15.15598 36991 ft 434 kts 230°
2026-05-07 21:36 34.01859 -15.20837 36974 ft 434 kts 231°
2026-05-07 21:37 33.97667 -15.26073 36992 ft 433 kts 231°
2026-05-07 21:37 33.93486 -15.31297 36998 ft 433 kts 231°
2026-05-07 21:38 33.89309 -15.36511 36998 ft 432 kts 231°
2026-05-07 21:38 33.85161 -15.41675 36979 ft 431 kts 231°
2026-05-07 21:39 33.80985 -15.46854 36976 ft 431 kts 231°
2026-05-07 21:39 33.76825 -15.52013 36680 ft 426 kts 231°
2026-05-07 21:40 33.74766 -15.54566 36008 ft 424 kts 231°
2026-05-07 21:40 33.72714 -15.57109 35284 ft 423 kts 231°
2026-05-07 21:40 33.70671 -15.59636 34631 ft 421 kts 231°
2026-05-07 21:40 33.68638 -15.62150 33948 ft 419 kts 231°
2026-05-07 21:41 33.66608 -15.64661 33052 ft 419 kts 231°
2026-05-07 21:41 33.64566 -15.67189 32001 ft 424 kts 232°
2026-05-07 21:41 33.62501 -15.69749 30935 ft 429 kts 232°
2026-05-07 21:41 33.60411 -15.72334 29849 ft 435 kts 232°
2026-05-07 21:42 33.58290 -15.74951 28593 ft 439 kts 232°
2026-05-07 21:42 33.56146 -15.77587 27384 ft 443 kts 232°
2026-05-07 21:42 33.53978 -15.80225 26161 ft 446 kts 231°
2026-05-07 21:42 33.51762 -15.82854 24953 ft 450 kts 231°
2026-05-07 21:43 33.49513 -15.85479 23863 ft 451 kts 230°
2026-05-07 21:43 33.47269 -15.88071 22985 ft 445 kts 230°
2026-05-07 21:43 33.45057 -15.90620 22107 ft 439 kts 230°
2026-05-07 21:43 33.42874 -15.93141 21207 ft 433 kts 230°
2026-05-07 21:44 33.40727 -15.95629 20396 ft 427 kts 230°
2026-05-07 21:44 33.38634 -15.98068 19618 ft 422 kts 230°
2026-05-07 21:44 33.36549 -16.00508 18864 ft 417 kts 230°
2026-05-07 21:44 33.34490 -16.02921 18099 ft 413 kts 230°
2026-05-07 21:45 33.32448 -16.05316 17259 ft 409 kts 230°
2026-05-07 21:45 33.30426 -16.07684 16454 ft 406 kts 229°
2026-05-07 21:45 33.28411 -16.10034 15663 ft 403 kts 229°
2026-05-07 21:45 33.26409 -16.12363 14893 ft 400 kts 229°
2026-05-07 21:46 33.24424 -16.14670 14138 ft 397 kts 229°
2026-05-07 21:46 33.22447 -16.16963 13464 ft 393 kts 229°
2026-05-07 21:46 33.21168 -16.18444 13355 ft 380 kts 229°
2026-05-07 21:46 33.19311 -16.20588 13219 ft 363 kts 229°
2026-05-07 21:47 33.17533 -16.22639 13088 ft 347 kts 229°
2026-05-07 21:47 33.15833 -16.24604 12951 ft 329 kts 229°
2026-05-07 21:47 33.14254 -16.26426 12815 ft 303 kts 229°
2026-05-07 21:47 33.12780 -16.28129 12431 ft 289 kts 230°
2026-05-07 21:48 33.11356 -16.29783 11823 ft 284 kts 230°
2026-05-07 21:48 33.09943 -16.31432 11115 ft 284 kts 229°
2026-05-07 21:48 33.08526 -16.33083 10432 ft 284 kts 228°
2026-05-07 21:48 33.07140 -16.34690 10162 ft 269 kts 228°
2026-05-07 21:49 33.05858 -16.36167 10027 ft 250 kts 229°
2026-05-07 21:49 33.04613 -16.37602 9680 ft 246 kts 229°
2026-05-07 21:49 33.03399 -16.39008 9243 ft 249 kts 229°
2026-05-07 21:49 33.02149 -16.40457 8826 ft 251 kts 228°
2026-05-07 21:50 33.00893 -16.41907 8420 ft 252 kts 228°
2026-05-07 21:50 32.99633 -16.43363 8014 ft 253 kts 228°
2026-05-07 21:50 32.98370 -16.44822 7596 ft 253 kts 228°
2026-05-07 21:50 32.97100 -16.46283 7185 ft 254 kts 228°
2026-05-07 21:51 32.95827 -16.47749 6770 ft 255 kts 228°
2026-05-07 21:51 32.94549 -16.49220 6349 ft 256 kts 228°
2026-05-07 21:51 32.93276 -16.50685 5906 ft 251 kts 227°
2026-05-07 21:51 32.92036 -16.52083 5504 ft 240 kts 226°
2026-05-07 21:52 32.90821 -16.53390 5108 ft 231 kts 225°
2026-05-07 21:52 32.89644 -16.54634 4740 ft 222 kts 225°
2026-05-07 21:52 32.88530 -16.55810 4599 ft 210 kts 225°
2026-05-07 21:52 32.87451 -16.56951 4524 ft 200 kts 225°
2026-05-07 21:53 32.86449 -16.58014 4449 ft 193 kts 225°
2026-05-07 21:53 32.85454 -16.59073 4370 ft 191 kts 225°
2026-05-07 21:53 32.84482 -16.60164 4147 ft 192 kts 227°
2026-05-07 21:53 32.83540 -16.61269 3858 ft 188 kts 227°
2026-05-07 21:54 32.82627 -16.62352 3568 ft 183 kts 228°
2026-05-07 21:54 32.81743 -16.63401 3316 ft 177 kts 229°
2026-05-07 21:54 32.80883 -16.64416 3065 ft 169 kts 229°
2026-05-07 21:54 32.80078 -16.65362 2846 ft 156 kts 228°
2026-05-07 21:55 32.79343 -16.66221 2639 ft 142 kts 228°
2026-05-07 21:55 32.78655 -16.67028 2434 ft 136 kts 229°
2026-05-07 21:55 32.77989 -16.67814 2243 ft 134 kts 229°
2026-05-07 21:55 32.77331 -16.68591 2057 ft 132 kts 228°
2026-05-07 21:56 32.76679 -16.69359 1876 ft 132 kts 227°
2026-05-07 21:56 32.76028 -16.70125 1701 ft 131 kts 228°
2026-05-07 21:56 32.75373 -16.70895 1519 ft 135 kts 230°
2026-05-07 21:56 32.74707 -16.71674 1336 ft 135 kts 227°
2026-05-07 21:57 32.74027 -16.72440 1096 ft 138 kts 226°
2026-05-07 21:57 32.73355 -16.73205 989 ft 134 kts 226°
2026-05-07 21:57 32.72719 -16.73981 821 ft 132 kts 226°
2026-05-07 21:57 32.72082 -16.74758 680 ft 132 kts 229°
2026-05-07 21:58 32.71435 -16.75517 498 ft 131 kts 227°
2026-05-07 21:58 32.70793 -16.76275 278 ft 132 kts 224°
2026-05-07 21:58 32.70139 -16.77032 190 ft 128 kts 226°
2026-05-07 21:58 32.69624 -16.77634 176 ft 66 kts 225°
2026-05-07 21:59 32.69433 -16.77858 176 ft 29 kts 225°
2026-05-07 21:59 32.69320 -16.77994 176 ft 15 kts 207°
2026-05-07 21:59 32.69285 -16.77950 176 ft 9 kts 89°
2026-05-07 21:59 32.69287 -16.77877 176 ft 8 kts 85°
2026-05-07 22:00 32.69314 -16.77827 176 ft 7 kts 50°
2026-05-07 22:00 32.69355 -16.77776 176 ft 10 kts 46°
2026-05-07 22:00 32.69397 -16.77721 176 ft 7 kts 65°
2026-05-07 22:00 32.69384 -16.77696 176 ft 3 kts 123°
2026-05-07 22:01 32.69366 -16.77673 176 ft 6 kts 137°
2026-05-07 22:01 32.69361 -16.77667 176 ft 0 kts 138°
2026-05-07 22:01 32.69359 -16.77666 176 ft 0 kts 138°